RH
30 30 30 27 20 22 25 26 21 18 16 14 10 7 6 4 4 3 3 4 6 8 8 14 20 14 11 14 50 47 53 25 39 87 57 89 99 82 55 48 96 77 74 67 41
35 32 27 22 26 25 29 26 21 18 17 12 8 7 5 4 3 3 5 6 8 8 13 14 24 22 14 16 36 63 64 31 34 65 63 100 98 96 78 71 64 42 71 88 66
27 27 25 31 26 26 28 26 19 18 16 10 8 6 4 4 3 4 6 9 14 16 20 20 18 31 18 18 33 58 69 51 42 69 95 97 98 97 85 85 64 41 60 77 95
30 31 32 31 24 27 27 22 20 16 14 10 7 5 4 3 4 6 11 16 18 20 24 32 18 28 28 22 35 66 82 84 60 66 100 99 98 94 99 94 62 48 59 67 94
33 32 30 30 30 30 26 24 20 16 12 9 6 4 4 4 5 10 13 15 17 19 20 28 28 21 29 30 52 54 85 98 80 86 90 94 96 99 92 97 76 50 64 63 83
26 24 29 35 37 31 27 27 23 16 10 7 5 4 4 5 8 12 15 15 14 13 17 19 30 25 24 33 47 50 84 100 92 91 99 98 90 98 96 98 87 69 54 68 79
28 27 28 34 38 34 28 28 22 13 9 6 4 4 4 7 10 16 15 14 10 8 10 16 26 27 22 32 42 56 73 99 90 97 97 99 90 71 98 82 92 89 99 88 75
30 34 32 35 38 33 31 27 18 11 7 5 4 4 6 9 16 17 14 11 9 7 6 13 19 28 22 26 40 56 66 76 91 100 98 100 95 84 91 97 100 91 96 99 82
33 36 32 34 36 34 32 25 16 9 6 4 4 4 8 13 18 17 15 15 14 12 7 11 16 26 23 25 30 48 56 62 83 99 100 95 98 100 83 88 97 98 92 76 74
35 38 34 32 33 34 31 20 13 8 5 4 4 5 8 16 20 17 17 25 31 29 14 10 13 23 26 22 25 30 43 52 64 100 96 92 98 98 93 98 98 98 86 97 97
35 40 36 31 32 36 32 20 10 8 5 4 4 6 15 22 21 22 24 34 43 38 31 16 16 19 26 21 24 28 38 44 49 80 88 93 100 99 95 96 97 97 95 80 100
38 38 33 35 38 37 31 17 9 8 4 4 5 9 19 27 21 24 44 53 45 45 48 33 25 16 23 22 21 25 28 37 47 54 82 98 100 98 100 99 98 97 96 99 91
35 40 35 40 41 39 23 13 10 6 4 4 6 11 21 30 22 30 41 55 66 61 55 45 40 26 17 24 22 20 25 28 37 43 61 76 88 96 87 97 96 98 98 95 98
40 36 39 36 36 38 20 14 9 5 3 4 7 12 29 29 21 35 41 50 61 77 79 84 55 40 22 21 23 21 20 26 29 41 50 64 67 92 87 91 90 96 98 96 87
39 37 38 38 38 33 20 14 7 4 3 4 9 26 31 30 21 32 43 63 55 65 83 78 83 56 35 22 24 26 21 22 26 34 42 47 48 74 86 91 90 95 92 89 83
39 37 41 42 42 27 18 10 6 4 4 5 10 28 38 32 20 22 38 46 67 71 80 77 92 74 38 36 21 24 27 23 27 29 32 37 31 38 62 66 82 97 100 98 98
43 40 44 41 37 26 16 9 5 3 3 6 13 17 35 30 20 12 42 51 54 79 98 77 92 95 42 32 23 22 29 32 30 29 28 36 38 27 46 57 87 99 100 95 96
44 45 52 43 36 22 12 8 4 3 3 6 15 28 30 26 19 11 14 50 45 75 100 88 70 96 58 34 28 27 42 43 34 27 27 68 59 42 45 48 92 97 94 85 83
46 52 55 47 34 20 11 7 4 3 3 8 18 33 33 23 20 11 7 46 46 57 69 91 80 97 94 49 30 30 52 68 40 30 42 66 95 64 50 65 77 80 81 77 87
48 53 52 46 32 17 10 6 3 3 4 14 20 28 24 21 15 9 6 23 56 55 63 93 98 94 88 65 34 49 93 96 47 41 60 80 100 100 85 85 86 88 87 82 97
55 57 53 46 27 14 9 6 3 3 5 13 24 23 21 20 16 11 7 10 45 50 60 81 92 93 86 76 40 60 92 100 96 67 66 95 95 100 98 87 76 77 81 94 96
61 66 57 43 21 12 9 5 3 3 7 16 20 22 21 20 14 10 7 5 29 56 63 71 100 100 100 100 81 29 95 98 97 95 100 94 86 99 100 100 92 74 72 88 94
57 62 59 36 17 11 8 4 3 4 9 20 19 20 18 16 8 6 6 6 8 54 63 64 77 100 100 100 100 36 64 99 98 100 99 95 80 90 99 100 98 100 93 87 79
58 70 55 30 16 11 7 4 3 5 13 19 18 18 19 14 9 5 6 6 7 43 54 63 64 90 100 96 82 60 50 84 98 100 98 83 62 57 82 87 84 89 92 94 72
75 68 44 24 15 11 7 4 4 8 18 20 18 15 16 14 10 5 6 7 8 25 54 58 58 67 61 97 100 93 35 57 78 98 100 86 67 43 54 83 77 82 86 87 69
81 61 36 20 16 12 7 4 5 10 18 19 18 17 16 14 9 5 6 12 10 24 59 55 60 47 39 93 100 98 41 43 50 59 100 100 100 100 71 67 72 61 81 83 72
73 54 29 21 17 11 7 4 5 12 19 19 18 18 16 10 6 6 9 16 26 46 69 56 57 39 60 84 100 100 60 48 52 59 99 100 100 100 100 89 60 64 51 81 100
Wind_Speed
40 44 45 45 47 51 52 54 58 61 67 74 77 80 82 85 83 78 58 49 40 35 36 32 30 35 43 48 49 54 55 61 60 51 52 56 50 49 53 59 56 61 43 59 57
40 41 42 44 50 51 53 55 61 65 72 75 80 83 84 85 80 62 55 42 37 33 33 34 29 35 40 45 53 57 54 54 58 48 55 52 50 53 56 57 58 61 54 52 57
38 40 42 47 50 51 57 58 63 69 73 77 84 88 88 85 74 57 49 39 35 28 27 28 30 30 36 44 51 55 52 52 55 51 54 48 51 55 56 56 53 57 55 49 56
40 42 48 51 52 54 57 61 67 71 75 81 85 88 91 82 60 56 43 32 28 24 24 24 30 28 31 41 48 54 51 53 55 61 53 57 44 61 56 56 55 55 54 60 55
44 47 50 51 53 55 55 65 70 74 79 83 88 88 88 75 55 48 36 30 29 26 22 25 26 32 26 36 46 55 54 52 55 54 46 51 54 57 61 56 54 56 54 53 61
44 47 49 52 54 53 59 65 73 77 81 86 90 89 79 62 55 39 32 29 28 24 22 25 26 28 30 29 42 49 54 52 56 59 46 49 61 61 44 56 51 49 55 52 52
46 48 52 54 55 57 62 68 74 78 84 88 90 86 71 56 42 34 33 28 25 21 19 24 29 29 32 29 34 46 51 54 57 60 41 49 60 58 45 58 55 48 49 49 55
46 49 53 57 53 58 66 71 74 82 86 90 87 77 60 48 35 33 30 28 23 17 17 23 30 28 34 32 31 44 50 55 56 52 51 55 48 62 60 55 51 54 53 49 46
49 52 56 57 56 60 68 73 77 84 89 92 83 73 54 41 33 32 30 27 23 15 12 21 29 31 35 35 34 41 47 51 51 53 54 51 50 51 63 52 53 54 51 54 55
51 54 57 58 57 64 69 73 80 86 90 91 80 67 51 36 32 30 26 24 22 18 10 16 27 32 33 38 34 34 45 46 51 54 47 47 45 53 61 67 49 46 57 51 47
52 55 56 55 59 65 69 70 75 89 92 85 76 57 37 33 27 24 25 24 23 18 14 11 21 33 35 40 40 36 38 46 47 50 51 51 49 49 53 65 54 50 49 52 55
53 54 56 57 63 68 72 74 81 88 88 75 66 40 27 25 28 24 20 20 22 14 12 6 19 28 37 37 40 39 37 42 43 49 55 55 54 48 52 59 53 44 46 53 60
54 54 58 61 66 69 71 77 84 87 83 72 60 32 23 25 27 18 14 19 21 16 13 9 9 21 35 38 39 41 39 40 41 45 54 51 54 49 59 59 54 49 52 54 54
54 56 59 64 65 70 72 78 85 87 80 77 49 28 20 26 23 18 13 15 16 18 15 13 8 12 27 39 40 40 43 40 40 44 50 45 51 54 50 60 56 46 46 51 54
54 58 63 69 69 70 72 78 84 86 74 76 43 24 21 24 27 16 11 14 13 13 16 14 10 5 21 36 42 38 42 43 42 44 46 43 45 49 50 53 67 49 46 44 46
54 58 64 71 70 70 73 79 84 83 65 53 37 21 24 27 26 18 10 10 16 13 14 15 11 6 14 30 40 41 41 44 43 43 47 41 46 44 49 60 42 51 48 47 45
55 61 66 71 70 69 73 79 83 79 75 50 30 20 21 25 27 20 13 9 9 6 13 14 12 11 6 24 36 43 41 42 41 45 49 39 42 41 51 50 45 48 47 49 48
57 62 66 72 70 67 71 79 79 80 64 44 27 23 23 26 28 24 13 8 9 9 9 12 9 13 6 15 32 42 41 40 41 45 46 34 34 36 40 47 50 49 51 54 50
57 63 66 72 66 66 70 76 76 75 62 35 24 22 27 28 28 26 18 7 6 7 8 10 7 11 11 3 24 40 38 35 37 39 39 38 27 31 38 36 49 47 44 52 46
60 65 66 67 65 64 70 74 74 68 50 32 23 23 26 28 28 27 21 8 9 8 6 12 6 9 8 4 19 37 35 30 37 40 44 43 28 33 35 33 32 48 43 41 43
62 66 67 64 60 64 69 73 71 62 45 31 24 26 28 29 28 28 22 11 8 9 4 9 7 6 8 6 12 34 38 34 29 34 39 44 41 28 28 30 36 47 40 37 39
64 67 67 62 59 62 68 72 69 56 41 30 26 29 31 30 29 29 24 14 9 11 8 4 5 7 6 6 2 29 45 40 33 29 17 32 37 27 30 34 33 42 39 32 35
62 66 64 57 57 61 68 68 64 50 36 28 28 31 32 33 32 28 25 16 8 15 10 8 3 7 5 4 6 21 45 49 40 29 22 24 30 25 23 33 31 29 34 31 37
64 64 60 53 54 60 66 66 60 44 34 28 29 30 33 35 37 29 20 17 6 19 13 10 3 1 3 1 5 9 39 49 47 35 18 21 24 26 26 26 24 28 32 36 35
63 57 52 50 52 58 63 63 53 38 32 31 33 33 33 34 34 30 21 13 6 17 14 11 6 4 3 3 4 7 31 45 42 34 24 21 20 28 33 31 22 23 33 31 33
58 54 46 47 51 57 61 59 47 36 29 31 34 34 35 35 34 27 17 8 3 13 15 11 7 4 3 5 4 8 28 38 40 42 29 30 32 30 28 35 29 26 29 34 32
47 45 43 47 51 55 59 56 44 34 31 31 33 34 35 35 33 25 13 3 3 11 13 12 8 6 5 5 5 10 16 38 45 50 34 31 33 41 40 33 31 26 29 32 38
Wind_Direction
313 315 316 319 322 324 328 332 337 341 341 342 341 340 340 339 338 333 323 312 297 284 266 261 251 237 229 220 213 212 212 211 214 209 209 214 207 204 210 212 211 217 213 215 212
318 319 319 321 324 325 331 332 338 341 343 342 342 340 340 341 334 332 321 308 294 281 263 252 249 241 230 218 213 211 212 208 210 204 210 208 205 202 208 213 212 215 211 215 213
325 325 325 326 327 329 332 336 339 342 343 342 343 342 340 340 334 328 319 307 291 280 267 249 243 244 230 219 213 211 208 206 204 203 209 195 204 198 204 216 211 213 211 212 211
329 329 327 328 329 330 337 345 344 344 342 343 342 343 341 339 332 327 318 308 291 278 264 254 233 238 234 220 214 212 206 204 200 202 203 210 202 202 200 211 214 210 207 213 212
332 332 331 330 330 336 340 345 345 345 343 343 342 342 341 337 331 324 317 309 295 281 266 243 238 230 232 222 215 212 206 204 200 199 200 212 202 194 204 207 214 210 210 208 216
336 336 333 333 337 340 342 344 344 344 344 344 342 342 340 335 329 326 320 311 298 284 262 240 236 226 226 224 217 211 209 204 200 197 202 202 201 202 192 196 210 211 212 211 211
338 337 336 339 342 344 344 345 345 345 345 344 343 342 338 336 331 326 322 319 308 288 257 234 226 222 221 219 215 211 212 209 200 204 197 196 200 201 197 206 203 201 205 210 212
337 338 338 342 344 346 346 347 346 346 345 344 343 342 341 337 331 329 330 326 319 298 253 227 220 219 217 217 211 212 212 209 206 204 203 194 198 199 205 209 197 209 209 201 198
336 337 340 342 347 348 348 349 347 347 346 343 343 344 341 339 336 337 335 338 338 322 259 222 216 210 215 214 211 210 213 211 205 206 211 205 208 202 202 205 201 207 208 215 217
337 338 343 345 350 351 351 350 346 348 345 345 345 344 342 344 338 338 343 344 341 341 301 225 216 207 212 215 213 212 212 209 207 212 213 200 204 204 198 201 202 201 205 200 206
338 341 345 347 351 351 351 351 350 348 345 345 346 345 345 339 340 346 345 351 344 343 338 233 218 205 208 212 210 206 209 210 207 213 204 199 201 204 203 202 194 193 202 215 211
341 345 346 348 351 351 352 350 354 351 345 347 346 346 340 339 345 357 355 3 359 351 356 265 221 208 205 209 213 209 205 207 206 211 205 205 204 204 203 204 201 194 198 200 208
343 348 348 351 351 352 352 353 352 349 347 350 348 349 342 347 346 355 353 1 4 4 358 332 243 217 204 206 212 211 205 205 207 209 208 212 208 203 203 207 202 195 196 194 203
348 351 353 352 352 353 353 351 350 348 348 353 351 353 356 349 350 346 354 352 12 16 10 359 332 231 206 205 209 210 207 204 206 205 215 214 213 213 206 203 193 191 177 199 202
351 354 355 355 355 354 351 351 350 348 349 351 354 359 354 359 352 341 342 344 356 354 356 357 347 257 207 206 204 207 210 207 206 209 212 216 219 214 219 207 207 200 194 191 195
349 353 354 356 354 353 350 351 351 349 352 349 357 9 353 357 354 338 336 330 354 0 3 6 4 336 222 204 200 205 209 209 211 209 210 219 222 216 219 205 212 209 204 201 206
350 352 354 356 353 350 350 352 349 348 353 357 357 0 354 357 354 344 326 332 346 345 6 4 24 27 228 203 198 200 205 207 208 208 209 216 227 220 218 218 206 203 199 206 204
349 352 354 356 352 349 351 351 349 352 352 358 358 2 360 358 355 352 323 311 349 9 13 6 8 29 20 202 194 197 203 203 207 207 206 207 221 211 217 217 213 216 204 206 209
348 350 352 353 349 350 349 351 350 351 355 1 2 1 352 354 355 351 347 282 303 349 360 6 357 5 22 184 198 192 194 198 201 202 199 199 198 200 207 212 218 219 212 200 206
348 350 351 350 347 348 351 349 348 350 356 3 8 2 353 351 351 349 349 299 266 306 341 20 351 336 346 12 189 192 185 180 196 198 195 194 193 200 201 210 205 220 214 212 214
348 347 349 347 345 349 349 349 349 351 355 0 3 355 352 349 350 346 347 317 252 279 297 7 15 34 360 14 186 187 180 167 173 197 211 212 203 179 179 206 206 217 220 213 212
345 344 346 345 345 348 349 350 349 351 356 358 358 355 350 346 346 343 337 330 236 246 279 344 347 344 70 358 60 190 184 178 180 167 175 211 215 214 162 162 191 215 219 205 214
343 343 344 342 344 347 349 348 347 351 354 357 353 353 350 345 343 345 331 326 250 221 240 255 338 357 53 65 18 188 186 189 193 190 186 205 210 206 191 158 174 189 203 210 217
340 340 342 342 343 346 349 347 346 349 351 353 352 352 349 346 343 350 330 316 261 210 224 238 259 312 23 6 282 212 192 191 199 196 184 204 206 201 195 163 158 187 189 209 219
338 340 341 338 341 345 347 345 346 348 348 350 351 351 349 344 343 345 337 313 261 206 206 224 231 258 307 328 251 236 193 194 199 197 171 189 204 197 197 197 193 185 187 191 204
333 336 336 336 342 344 344 345 346 344 347 348 350 350 348 344 343 344 341 314 246 201 198 210 215 246 306 326 212 217 192 188 186 192 190 155 160 183 190 204 210 197 189 188 189
333 333 333 336 341 342 341 342 344 344 347 347 348 349 348 345 344 346 347 302 210 192 188 199 206 239 291 331 190 196 187 189 187 191 181 153 148 168 179 187 202 200 200 192 183